This is the latest recevied weather packets stored in our database for station/object OE6JUE. If no packets are shown the sender has not sent any weather packets the latest 10 day(s).
| Time | Temp. | Humidity | Pressure | Rain* | Wind** | Luminosity | Snow |
|---|---|---|---|---|---|---|---|
| 1788490283 | 17.22° C | 76% | 1022.3 hPa | 0 mm | - | - | - |
| 1788489984 | 17.22° C | 76% | 1022.3 hPa | 0 mm | - | - | - |
| 1788489683 | 17.22° C | 76% | 1022.3 hPa | 0 mm | - | - | - |
| 1788489383 | 17.78° C | 72% | 1022.1 hPa | 0 mm | - | - | - |
| 1788489083 | 17.78° C | 72% | 1022 hPa | 0 mm | - | - | - |
| 1788488784 | 18.33° C | 72% | 1022 hPa | 0 mm | - | - | - |
| 1788488483 | 18.33° C | 71% | 1022.1 hPa | 0 mm | - | - | - |
| 1788488183 | 18.33° C | 71% | 1022.1 hPa | 0 mm | - | - | - |
| 1788487883 | 18.33° C | 71% | 1022 hPa | 0 mm | - | - | - |
| 1788487583 | 18.33° C | 72% | 1022.2 hPa | 0 mm | - | - | - |
| 1788487284 | 18.33° C | 72% | 1022.2 hPa | 85.85 mm | - | - | - |
| 1788486984 | 18.33° C | 71% | 1022.3 hPa | 0 mm | - | - | - |
| 1788486683 | 18.33° C | 71% | 1022.3 hPa | 0 mm | - | - | - |
| 1788486384 | 18.33° C | 71% | 1022.3 hPa | 0 mm | - | - | - |
| 1788486083 | 18.33° C | 71% | 1022.3 hPa | 0 mm | - | - | - |
| 1788485783 | 18.33° C | 71% | 1022.4 hPa | 0 mm | - | - | - |
| 1788485483 | 18.89° C | 69% | 1022.4 hPa | 0 mm | - | - | - |
| 1788485183 | 18.89° C | 69% | 1022.4 hPa | 0 mm | - | - | - |
| 1788484883 | 18.89° C | 67% | 1022.4 hPa | 0 mm | - | - | - |
| 1788484583 | 18.89° C | 68% | 1022.3 hPa | 0 mm | - | - | - |
| 1788484282 | 18.89° C | 68% | 1022.3 hPa | 0 mm | - | - | - |
| 1788483983 | 18.33° C | 71% | 1022.2 hPa | 0 mm | - | - | - |
| 1788483683 | 18.33° C | 71% | 1022.1 hPa | 85.85 mm | - | - | - |
| 1788483382 | 18.89° C | 71% | 1022.3 hPa | 0 mm | - | - | - |
| 1788483083 | 18.89° C | 70% | 1022 hPa | 0 mm | - | - | - |
* Rain latest hour (hover to see other rain measurements)
** Current wind speed in m/s (hover to see current wind gust speed)